TimeAST,TemperatureF,Dew PointF,Humidity,Sea Level PressureIn,VisibilityMPH,Wind Direction,Wind SpeedMPH,Gust SpeedMPH,PrecipitationIn,Events,Conditions,WindDirDegrees,DateUTC
12:00 AM,21.6,17.6,85,29.67,-9999.0,NW,9.2,18.4,N/A,,Unknown,320,2013-02-19 04:00:00
1:00 AM,21.6,17.1,83,29.70,-9999.0,NW,8.1,18.4,N/A,,Unknown,320,2013-02-19 05:00:00
2:00 AM,21,16,74,29.73,,NW,11.5,,,,,320,2013-02-19 06:00:00
2:00 AM,21.2,16.2,81,29.73,-9999.0,NW,11.5,23.0,N/A,,Unknown,320,2013-02-19 06:00:00
3:00 AM,20.5,16.3,84,29.77,-9999.0,NW,8.1,-,N/A,,Unknown,310,2013-02-19 07:00:00
4:00 AM,20.3,16.7,86,29.79,-9999.0,NW,9.2,20.7,N/A,,Unknown,310,2013-02-19 08:00:00
5:00 AM,21.0,17.1,85,29.82,-9999.0,NW,10.4,17.3,N/A,,Unknown,310,2013-02-19 09:00:00
6:00 AM,21.4,17.2,84,29.86,-9999.0,NW,10.4,23.0,N/A,,Unknown,310,2013-02-19 10:00:00
8:00 AM,22,17,73,29.91,,NW,8.1,,,,,320,2013-02-19 12:00:00
9:00 AM,25.0,17.6,74,29.93,-9999.0,NW,11.5,20.7,N/A,,Unknown,320,2013-02-19 13:00:00
10:00 AM,28.0,19.4,70,29.93,-9999.0,NW,10.4,23.0,N/A,,Unknown,320,2013-02-19 14:00:00
11:00 AM,31.3,20.5,64,-9999,-9999.0,NW,8.1,19.6,N/A,,Unknown,320,2013-02-19 15:00:00
12:00 PM,32.9,21.9,64,29.96,-9999.0,NW,6.9,-,N/A,,Unknown,320,2013-02-19 16:00:00
1:00 PM,36.3,22.5,57,29.97,-9999.0,NNW,6.9,-,N/A,,Unknown,340,2013-02-19 17:00:00
2:00 PM,38,22,40,29.98,,NNW,5.8,,,,,330,2013-02-19 18:00:00
2:00 PM,37.6,22.5,54,29.98,-9999.0,NNW,5.8,-,N/A,,Unknown,330,2013-02-19 18:00:00
3:00 PM,39.0,23.9,55,29.99,-9999.0,NW,4.6,-,N/A,,Unknown,310,2013-02-19 19:00:00
4:00 PM,38.1,24.1,57,30.00,-9999.0,NW,3.5,-,N/A,,Unknown,310,2013-02-19 20:00:00
5:00 PM,35.4,26.6,70,30.01,-9999.0,WNW,3.5,-,N/A,,Unknown,300,2013-02-19 21:00:00
6:00 PM,31.3,28.9,91,30.01,-9999.0,West,3.5,-,N/A,,Unknown,280,2013-02-19 22:00:00
7:00 PM,31.1,28.6,90,30.02,-9999.0,West,3.5,-,N/A,,Unknown,270,2013-02-19 23:00:00
9:00 PM,29.7,26.8,89,30.00,-9999.0,SSW,3.5,-,N/A,,Unknown,200,2013-02-20 01:00:00
10:00 PM,30.0,27.5,90,29.97,-9999.0,South,3.5,-,N/A,,Unknown,180,2013-02-20 02:00:00
11:00 PM,30.7,27.3,87,29.94,-9999.0,South,3.5,-,N/A,,Unknown,170,2013-02-20 03:00:00